Flag for Liechtenstein Weather past 2 weeks in Vaduz, Liechtenstein

Now
45 °F

Quite cool.


Feels Like: 40 °F
Forecast: 44 / 53 °F
Wind: 8 mph from Southeast

Location: Vaduz

Current Time: Dec 18, 2014 at 1:42:53 PM

Latest Report: Dec 18, 2014 at 12:00 PM


Visibility: N/A

Pressure: 30.17 "Hg

Humidity: 76%

Dew point: 38 °F

Location of VaduzLocation

Historic Weather in Vaduz — Graph

°F

Vaduz temperature yesterday

Maximum temperature yesterday: 46 °F (at 2:00 PM)
Minimum temperature yesterday: 39 °F (at 8:00 AM)
Average temperature yesterday: 42 °F

Past Weeks' High & Low Weather Summary

 TemperatureHumidityPressure
High59 °F (Dec 13, 2:00 PM)98% (Dec 16, 9:00 AM)30.49 "Hg (Dec 16, 9:00 AM)
Low29 °F (Dec 10, 7:00 AM)27% (Dec 12, 11:00 PM)29.83 "Hg (Dec 12, 11:00 PM)
Average42 °F78%30.10 "Hg
* Reported Dec 3 12:00 Noon — Dec 18 12:00 Noon, Vaduz, Weather by CustomWeather, © 2014

Note: Actual official high and low records may vary slightly from our data, if they occured in-between our weather recording intervals... More about our weather records

Advertising

Vaduz weather history for previous 24 hours

 ConditionsComfort  
Time TempWeatherWind HumidityBarometerVisibility
12:00 PM
Dec 18
45 °FQuite cool.8 mph76%30.17 "HgN/A
11:00 AM44 °FQuite cool.8 mph73%30.17 "HgN/A
10:00 AM43 °FFog.7 mph74%30.17 "Hg5 mi
9:00 AM43 °FQuite cool.8 mph74%30.16 "HgN/A
8:00 AM42 °FQuite cool.8 mph76%30.15 "HgN/A
7:00 AM42 °FFog.6 mph76%30.14 "Hg4 mi
6:00 AM42 °FQuite cool.7 mph76%30.14 "HgN/A
5:00 AM42 °FQuite cool.6 mph79%30.13 "HgN/A
4:00 AM42 °FRain. Overcast.6 mph79%30.13 "Hg5 mi
3:00 AM41 °FQuite cool.7 mph83%30.13 "HgN/A
2:00 AM42 °FQuite cool.6 mph83%30.13 "HgN/A
1:00 AM41 °FQuite cool.6 mph84%30.12 "HgN/A
12:00 AM41 °FQuite cool.3 mph86%30.10 "HgN/A
11:00 PM
Dec 17
41 °FQuite cool.5 mph88%30.09 "HgN/A
10:00 PM40 °FQuite cool.5 mph90%30.07 "HgN/A
9:00 PM40 °FQuite cool.6 mph90%30.05 "HgN/A
8:00 PM41 °FQuite cool.6 mph90%30.03 "HgN/A
7:00 PM42 °FRain. Low clouds.6 mph83%30.00 "Hg3 mi
6:00 PM42 °FQuite cool.3 mph84%29.97 "HgN/A
5:00 PM43 °FQuite cool.1 mph78%29.94 "HgN/A
4:00 PM45 °FFog.7 mph68%29.91 "Hg3 mi
3:00 PM46 °FCool.6 mph67%29.90 "HgN/A
2:00 PM46 °FCool.2 mph64%29.89 "HgN/A
1:00 PM46 °FOvercast.7 mph68%29.91 "Hg4 mi
Weather by CustomWeather, © 2014

See weather overviewHow to use our weather pages